Theta_e
297 298 300 300 302 303 304 306 308 311 316 322 328 328 327 328 328 327 326 325 323 320 319 317 315 315 313 311 309 308 307 306 306 306 306 307 309 313 314 319 323 326 330 331 332 332 332 332 333 334 332 333 334 333 332 331 332 332 331 330 329 327 326 324 323 322 322 322 321 321 320 319 319 319 318 318 317 318 317 317 316 316 316 316 316
297 299 299 300 302 303 304 305 308 311 315 322 328 328 328 328 327 325 325 323 320 317 314 311 311 310 309 308 307 306 305 304 304 303 304 304 304 305 308 313 317 320 326 330 331 332 333 333 333 334 334 333 333 332 331 332 332 331 330 329 328 325 324 323 322 322 321 320 319 319 319 318 318 317 317 317 317 317 316 315 315 315 315 315 315
298 299 300 301 302 304 305 306 308 311 316 324 326 326 326 326 326 325 324 318 314 313 310 308 307 307 306 305 304 304 303 303 302 302 301 301 302 302 303 307 310 314 320 326 329 331 331 333 334 334 335 334 332 333 333 330 329 328 327 326 325 323 323 322 321 320 319 319 318 317 317 317 316 316 316 315 315 315 315 315 315 314 314 314 314
299 300 301 302 303 305 307 309 310 313 320 325 325 323 323 319 320 321 316 313 310 309 308 306 305 304 304 303 302 301 301 300 300 300 299 299 300 300 300 301 304 308 312 319 324 327 329 332 333 335 336 335 335 331 329 327 327 326 325 324 323 322 322 321 319 319 318 318 317 316 316 316 316 315 315 314 314 315 314 314 314 313 313 313 313
300 302 303 304 308 312 316 315 316 319 323 323 319 318 316 314 314 313 310 308 306 305 305 303 301 301 301 300 300 299 299 299 298 298 298 298 298 298 298 299 299 302 306 310 316 323 325 328 330 331 331 331 331 330 328 326 326 325 324 324 323 322 321 320 319 318 318 317 317 316 316 315 314 314 314 314 313 313 313 313 313 312 312 312 312
301 302 304 309 310 310 311 312 314 316 316 316 315 314 312 311 310 309 307 306 304 303 301 300 299 299 299 299 298 298 298 297 297 296 297 296 297 297 297 298 298 298 299 303 309 314 321 324 326 329 329 329 328 328 327 326 325 323 323 321 321 320 319 319 317 317 316 316 316 315 315 314 313 313 313 313 312 312 312 312 312 312 311 311 311
302 303 307 307 307 307 308 309 310 311 311 311 310 309 308 307 307 304 303 302 302 301 300 298 298 297 297 297 297 297 296 296 296 295 295 295 295 295 296 297 297 297 297 298 301 308 312 318 322 323 325 326 325 326 325 325 325 324 323 321 320 319 318 317 316 315 315 315 314 314 314 313 312 312 312 312 312 311 311 311 311 310 310 310 310
302 305 305 305 305 305 305 306 307 308 307 307 307 305 305 304 304 303 300 299 299 298 298 297 297 296 296 296 296 296 295 295 294 294 294 294 294 294 294 295 296 296 297 296 297 300 306 309 314 317 320 322 322 323 323 323 323 322 322 321 320 319 318 317 316 315 314 314 314 314 313 312 312 312 311 311 311 311 310 310 310 309 309 309 309
301 304 304 304 303 303 303 304 305 305 305 305 304 303 302 301 301 301 300 298 297 296 296 296 295 295 295 295 295 295 294 294 294 294 294 293 293 293 293 293 294 295 294 295 296 296 300 304 306 309 312 317 320 320 320 320 321 321 320 320 319 319 317 315 314 313 313 313 313 313 312 311 311 310 310 310 310 310 309 309 309 309 309 308 308
299 302 304 303 302 302 302 302 303 303 303 302 302 302 301 300 298 299 299 298 296 295 294 294 294 294 294 294 294 294 294 294 294 294 293 292 291 291 292 292 293 293 294 294 294 295 295 298 301 302 306 310 315 318 319 319 320 320 320 319 318 317 316 315 314 313 313 312 311 311 311 311 310 310 309 309 309 308 308 308 309 309 308 308 308
298 300 301 303 302 302 301 301 301 301 301 301 300 300 299 298 296 296 296 296 295 294 293 293 292 292 292 292 293 293 294 294 294 294 293 292 292 292 292 292 292 292 292 293 293 294 294 295 295 296 297 305 309 312 315 315 317 318 319 318 318 316 314 313 312 311 310 310 310 310 310 310 309 309 308 308 308 308 307 307 307 307 307 307 307
298 299 300 301 301 301 301 301 301 300 299 299 299 299 298 297 296 295 294 294 295 294 293 292 292 291 291 291 292 292 292 292 292 292 292 292 291 292 291 292 291 291 292 292 293 293 293 294 295 295 296 299 304 307 309 311 314 315 317 317 317 316 315 313 312 311 310 310 309 308 308 308 307 307 307 307 306 306 306 306 306 306 306 306 306
297 298 299 300 300 301 301 300 300 299 298 298 298 298 298 298 297 297 295 293 293 295 295 295 292 290 291 290 290 292 292 292 291 291 291 292 292 291 292 291 291 291 291 292 292 292 293 293 293 294 295 295 297 301 305 307 309 312 313 315 316 315 314 313 312 311 310 309 308 307 307 306 306 306 306 306 305 305 305 305 305 305 305 306 306
295 296 298 299 299 300 300 300 299 298 298 298 298 298 297 296 296 295 296 294 293 295 296 299 294 291 289 288 289 290 291 291 291 291 291 292 292 291 291 290 290 290 291 291 291 292 292 292 293 294 294 295 295 297 298 301 306 308 310 311 313 313 314 312 311 310 308 307 306 306 305 305 305 306 305 304 304 304 304 304 305 305 305 305 305
291 294 294 295 297 298 299 300 300 299 296 296 296 296 296 296 295 295 294 296 295 296 297 299 293 293 293 293 290 290 291 291 291 290 291 291 291 291 291 290 289 290 291 290 290 290 291 292 292 293 293 294 295 295 297 299 304 307 308 308 310 313 313 312 310 308 307 306 305 305 305 304 305 304 304 304 304 304 305 305 304 304 305 305 305
289 290 291 291 292 295 297 299 300 300 298 297 296 295 295 295 295 295 296 293 293 295 297 297 295 295 294 294 293 293 290 289 287 288 289 288 289 289 289 288 288 288 288 288 289 289 290 291 291 292 292 293 294 295 294 297 302 303 306 307 307 308 309 309 308 308 307 305 304 304 304 304 304 303 303 303 303 303 303 303 303 304 304 304 305
287 288 290 289 290 291 293 296 298 299 299 299 298 298 298 299 299 298 296 294 292 294 295 296 296 296 295 293 292 292 293 289 286 286 287 287 288 288 289 288 287 287 287 287 287 287 287 287 288 289 289 290 292 293 293 293 293 297 298 306 306 307 307 307 307 307 306 304 304 304 303 303 303 302 302 303 303 302 302 303 304 304 304 304 304
287 287 288 290 288 289 290 291 291 293 296 296 297 298 298 299 299 298 296 296 295 293 292 294 295 295 295 297 297 295 289 287 291 288 285 287 286 287 287 287 287 286 286 286 286 286 287 287 288 288 289 289 290 290 291 292 294 293 296 301 306 306 306 306 305 305 305 305 304 303 302 302 302 302 302 302 302 302 302 302 303 303 303 304 304
286 286 286 288 287 287 288 289 290 290 293 291 292 292 294 295 296 295 295 295 295 293 293 293 295 294 294 295 294 293 292 289 288 287 285 285 285 284 285 287 287 287 286 285 285 285 286 287 287 287 288 289 289 288 288 288 293 297 301 302 304 305 306 306 305 305 305 304 303 302 302 302 302 302 302 301 301 301 301 302 302 303 303 304 304
285 285 286 287 288 286 286 287 288 289 291 288 288 290 292 292 294 294 294 295 294 294 292 293 293 292 293 292 291 292 292 295 292 290 288 284 283 285 285 284 284 285 285 285 285 285 285 286 287 286 287 288 287 287 287 287 285 286 291 300 302 303 304 304 304 303 304 303 302 302 301 301 302 301 302 302 301 302 302 302 302 302 302 303 303
284 285 285 285 288 286 285 286 287 288 290 287 286 287 287 288 288 290 292 293 294 294 293 292 292 290 290 289 290 290 291 293 290 287 283 281 281 280 280 282 282 283 283 284 284 285 285 285 285 285 286 286 285 285 285 284 283 283 292 297 299 301 302 302 303 304 303 303 302 302 301 301 302 302 302 302 302 302 302 302 302 302 303 303 303
283 284 284 285 285 285 285 285 285 287 289 284 285 285 285 285 285 287 288 290 289 290 291 289 291 291 291 290 287 287 288 287 287 284 283 283 283 280 280 279 278 280 282 282 283 283 284 284 284 285 284 284 284 284 284 284 284 285 288 293 295 298 300 301 302 303 303 303 302 301 301 301 301 302 302 302 302 302 302 302 302 302 302 302 302
283 283 284 283 285 287 285 285 286 287 286 284 284 284 285 284 284 285 285 286 286 286 287 287 287 288 289 288 288 288 287 285 285 285 281 279 280 280 279 279 279 279 280 282 282 282 282 283 283 283 283 283 283 283 283 283 286 288 290 290 293 295 298 300 301 301 302 303 302 302 302 302 302 302 302 302 302 302 302 302 302 302 302 302 302
282 282 283 283 286 284 285 283 286 284 284 283 284 284 284 284 284 285 284 284 286 287 284 285 284 285 285 286 287 286 285 286 286 286 283 280 282 279 278 278 278 278 281 280 281 281 281 282 282 282 283 283 283 283 283 284 285 289 289 291 292 294 297 299 300 301 302 302 302 302 302 302 302 302 302 302 302 302 302 302 302 302 302 302 302
282 282 282 282 285 284 284 284 283 284 286 284 284 283 283 283 284 283 283 284 284 283 284 283 283 283 283 283 283 283 284 283 285 286 282 281 280 277 278 278 276 277 278 279 279 280 281 282 282 282 282 283 284 284 283 284 283 287 291 289 291 292 294 296 299 301 301 302 302 302 302 302 302 302 302 302 302 301 301 301 301 301 301 301 301
282 282 283 282 284 284 285 283 283 283 286 285 285 285 284 283 283 284 284 283 283 283 282 283 281 281 282 283 282 282 281 282 282 284 282 281 279 279 278 278 277 277 278 278 278 280 280 282 282 283 282 283 283 283 283 283 283 288 289 287 287 291 293 295 296 298 300 300 301 301 302 302 302 302 302 302 302 302 301 301 301 301 300 300 300
283 284 283 283 283 283 283 284 283 283 283 283 285 283 283 286 286 284 285 282 283 285 283 282 283 282 281 281 282 282 281 281 282 283 283 283 281 279 279 278 278 278 278 278 277 279 279 279 282 282 282 283 283 283 283 282 284 288 289 287 284 289 292 295 296 298 300 301 301 301 301 302 302 302 302 302 302 301 301 301 300 300 300 300 301
283 283 283 284 283 283 283 283 282 282 283 284 283 284 283 283 283 283 282 286 282 283 281 281 281 281 280 280 281 281 281 281 281 282 282 283 283 281 281 279 278 277 277 277 277 278 280 279 280 282 283 283 283 283 285 285 284 288 289 285 284 284 290 292 294 295 297 298 299 300 302 302 302 302 303 302 302 302 301 301 301 301 301 301 301
284 284 284 283 284 283 283 283 283 283 282 283 283 282 282 283 283 281 282 282 283 282 281 281 281 280 280 280 281 281 280 280 281 282 281 282 282 281 282 282 280 277 276 276 277 277 278 280 280 280 283 283 283 283 283 283 285 287 284 284 284 282 286 291 293 295 296 297 298 299 300 301 301 302 302 302 302 303 302 302 301 301 301 302 302
285 286 285 284 283 286 284 284 283 283 283 282 282 282 282 282 281 282 282 281 282 282 282 281 281 280 281 281 281 281 281 281 281 281 281 281 281 282 281 281 281 281 278 277 278 279 278 278 281 280 281 283 283 283 283 283 287 287 284 283 283 283 288 290 292 294 295 296 296 297 298 299 300 301 301 302 302 303 303 303 302 302 302 302 301
285 285 284 284 284 284 284 284 283 283 283 283 283 282 281 282 282 282 281 281 281 282 282 282 282 282 281 281 280 281 281 281 281 280 281 281 281 281 281 282 281 280 280 278 278 278 281 281 281 282 281 282 283 283 284 283 285 287 285 283 283 286 288 288 291 293 295 295 296 296 297 298 299 300 300 301 302 302 303 303 303 302 302 301 300
285 284 284 284 284 284 284 284 284 283 283 283 283 283 282 283 282 283 282 281 282 282 282 282 283 283 281 281 281 282 281 280 281 281 280 281 280 280 281 281 281 281 280 280 279 280 280 281 281 281 282 282 282 282 283 284 285 289 284 284 284 288 286 285 288 291 293 294 295 295 295 296 297 298 299 299 300 301 302 302 302 301 300 299 298
285 284 284 284 284 284 284 284 284 284 283 283 283 283 282 283 283 282 282 281 282 282 282 282 281 282 282 282 282 282 280 281 282 282 281 281 280 281 281 280 281 280 281 280 280 280 280 279 281 282 282 282 281 282 282 283 283 283 287 284 284 284 283 283 283 288 290 292 294 294 294 295 295 296 297 297 298 299 299 300 300 298 296 295 294
285 285 284 285 284 284 284 284 284 284 284 283 283 283 283 283 283 284 283 282 282 282 281 281 282 282 282 282 282 282 281 281 281 281 282 281 281 280 280 281 281 281 281 281 280 279 281 280 280 281 281 282 283 282 282 282 282 282 282 284 284 284 283 283 283 283 288 291 292 294 294 294 294 294 294 295 296 296 296 295 295 294 293 292 292
286 285 286 285 285 284 284 284 284 284 284 284 284 283 283 283 283 283 284 283 283 282 282 282 282 282 281 282 283 283 283 281 282 282 281 281 281 281 281 281 281 281 280 281 280 279 279 280 280 280 280 281 282 283 283 283 284 283 282 282 283 284 284 283 282 283 287 289 291 293 294 294 294 294 294 294 294 294 293 293 293 293 292 292 292
287 286 285 285 284 284 284 284 284 284 284 284 284 283 284 284 283 283 283 283 283 283 283 283 282 282 282 282 283 284 283 282 282 282 282 281 281 281 281 281 281 282 281 280 280 280 279 279 279 280 281 280 281 283 283 283 282 282 282 283 282 282 283 283 283 283 285 289 291 292 293 294 294 294 294 294 294 293 293 293 293 292 292 291 291
287 286 286 284 284 284 285 285 284 284 284 284 284 284 284 284 284 284 283 283 283 283 283 283 284 283 283 284 284 284 283 282 283 283 283 282 282 281 281 282 282 282 282 281 280 280 279 279 281 282 282 281 281 282 282 282 281 281 281 281 282 282 282 283 283 284 287 288 290 291 292 293 293 294 294 294 293 293 293 292 292 291 291 291 290
287 286 286 286 286 285 285 285 285 285 285 284 284 284 284 284 284 284 284 284 283 283 283 283 284 285 284 284 285 285 284 283 283 284 284 283 282 281 281 282 282 281 281 280 280 280 279 280 280 281 282 281 281 281 282 282 281 280 280 280 280 281 281 281 282 283 283 283 284 286 289 291 292 293 293 293 293 293 292 292 292 291 290 290 289
287 287 287 286 286 286 286 286 285 285 285 285 285 284 284 284 284 283 283 284 284 284 284 284 284 285 285 285 285 285 285 284 284 284 284 284 283 282 282 282 282 281 281 280 280 280 280 280 280 281 281 283 282 281 283 281 281 281 281 281 280 280 280 281 282 282 282 283 285 287 287 287 289 290 292 293 293 292 292 292 291 291 290 289 289
287 287 287 287 287 286 286 286 286 286 285 285 285 285 284 284 284 283 283 283 283 284 284 284 285 285 285 286 286 286 285 285 285 285 285 284 284 283 283 283 282 281 281 281 280 280 280 280 280 281 281 281 281 282 281 279 279 279 280 280 280 281 280 280 280 281 281 281 282 282 286 287 288 289 290 291 292 292 292 291 291 290 289 289 289
287 287 287 287 286 286 286 286 286 286 286 286 286 285 285 284 284 284 283 283 283 283 283 283 284 284 285 286 286 286 287 287 287 287 287 286 284 283 284 283 283 282 281 281 281 281 280 280 280 281 281 280 281 282 281 280 279 280 280 279 279 280 281 281 280 280 281 281 282 282 282 283 283 283 284 284 286 289 289 290 289 289 289 289 289
286 286 286 286 286 286 286 286 286 286 286 287 287 288 289 286 285 284 284 283 283 283 283 282 283 283 284 285 286 287 287 287 287 287 288 288 288 286 285 284 283 282 282 281 281 281 281 280 280 280 280 280 281 281 281 282 282 282 280 279 278 280 279 279 280 279 281 281 281 280 281 282 282 282 282 282 283 285 285 285 285 286 287 289 289
286 286 285 285 285 286 286 286 286 287 287 288 289 290 291 291 288 286 284 284 283 283 283 282 282 283 284 285 285 286 286 286 286 287 288 288 288 288 288 288 286 284 283 282 282 282 281 280 280 280 279 279 280 282 281 282 282 281 281 280 280 279 278 278 277 279 281 282 281 280 280 281 281 280 281 281 282 282 283 283 286 287 288 288 288
285 285 284 285 286 285 286 286 285 286 287 288 290 291 291 291 291 288 286 285 284 283 283 283 283 284 284 285 286 286 285 285 286 286 286 288 288 288 288 288 288 288 288 285 283 282 281 281 280 280 280 280 281 281 281 282 282 282 281 281 280 279 279 278 278 278 280 281 280 279 279 280 280 280 280 280 281 282 282 283 286 287 287 287 287
284 284 285 285 285 285 285 285 285 286 286 288 290 291 291 291 292 290 288 287 285 285 284 284 283 283 284 284 285 286 286 286 286 285 285 284 286 288 288 288 288 289 289 290 289 286 284 283 281 281 281 282 281 281 283 283 283 281 281 281 281 281 281 280 280 281 279 280 280 279 279 279 278 279 279 280 280 280 280 284 286 287 287 287 287
284 285 285 285 285 285 285 285 285 286 286 288 290 290 290 291 291 291 288 287 286 286 285 285 284 284 284 285 285 285 286 286 286 285 285 284 283 283 284 285 286 286 288 289 289 288 287 286 284 282 283 283 282 283 284 284 283 282 282 281 281 281 281 281 282 283 282 280 280 280 279 278 278 278 277 278 279 278 278 282 285 286 287 287 287
285 285 285 285 285 285 285 285 285 285 286 289 290 290 290 291 291 291 288 287 287 286 286 285 285 285 286 286 286 285 285 285 286 286 284 284 284 284 283 283 284 285 285 285 286 287 287 287 287 285 285 285 285 285 285 285 284 284 284 283 283 283 283 283 282 279 279 280 281 280 277 279 276 276 276 277 277 277 278 282 284 285 286 286 286
284 284 285 284 284 285 285 285 284 285 286 289 289 290 290 291 291 289 287 286 286 286 286 286 286 286 286 286 285 285 285 285 286 288 287 285 284 283 283 283 284 284 284 286 287 288 287 287 287 287 287 287 288 287 287 286 285 284 284 284 283 281 281 280 279 280 279 279 280 279 278 278 275 275 275 276 277 276 277 277 282 285 285 285 285
285 285 285 285 285 285 285 284 284 285 285 287 289 289 290 291 290 287 286 285 285 285 285 285 286 286 286 286 286 285 285 285 287 289 289 288 284 283 283 283 283 283 284 285 287 288 289 289 289 289 290 290 290 291 291 291 288 286 283 281 281 281 279 278 279 280 280 278 278 279 279 278 276 275 275 275 276 276 276 276 277 282 284 284 284
285 285 285 285 285 285 284 284 284 284 285 286 288 289 289 290 289 286 285 284 284 284 284 285 285 286 286 286 286 286 286 286 288 289 289 288 285 284 283 282 282 282 283 285 285 286 288 288 289 289 289 289 290 290 291 291 290 289 285 281 282 281 280 280 279 280 281 278 277 279 277 277 277 276 276 275 274 274 275 275 275 276 281 282 283
284 284 284 284 284 285 284 284 284 284 284 285 287 288 289 289 288 286 285 284 284 284 284 284 285 285 285 286 286 286 286 287 289 289 289 287 285 284 283 282 282 282 283 284 284 284 284 284 284 285 285 286 287 287 287 288 289 288 287 285 285 282 280 280 280 280 278 279 278 279 276 277 276 276 274 270 268 271 272 273 274 273 274 275 276
Wind_Speed
9 8 8 8 7 8 7 6 6 7 7 7 5 4 6 4 5 6 6 6 7 7 7 7 7 6 8 9 8 7 6 6 6 6 6 5 5 10 17 17 18 19 16 5 10 13 15 16 17 16 16 14 13 14 15 16 17 20 21 21 21 20 19 18 18 16 15 14 14 13 12 12 12 12 12 11 11 11 11 11 11 11 11 10 10
9 8 8 8 8 8 8 6 6 6 7 8 3 3 3 5 6 6 6 7 8 7 8 8 7 8 8 8 7 7 6 6 6 6 5 5 4 6 16 18 19 20 19 15 8 6 13 15 17 17 16 16 17 15 16 18 19 22 22 22 23 22 19 18 17 16 16 14 15 14 13 13 12 12 12 11 11 11 11 11 11 11 10 10 10
8 9 8 8 7 7 7 7 5 7 7 6 0 1 1 2 5 9 8 9 7 7 9 9 8 8 7 9 8 7 6 6 7 5 6 5 5 6 8 15 17 18 19 21 21 20 7 14 15 17 18 17 16 18 20 24 23 23 22 20 21 21 19 18 18 16 16 14 13 12 12 12 12 12 11 11 11 10 10 10 10 10 10 9 9
9 9 8 8 7 7 7 6 6 6 7 2 3 4 4 8 6 6 12 9 9 8 7 9 8 8 7 8 7 7 7 5 6 6 5 6 5 6 6 8 14 17 19 21 21 22 21 8 3 15 19 20 24 25 21 21 22 21 22 19 20 20 19 18 17 16 15 15 14 13 12 12 12 12 11 11 10 10 10 10 10 10 9 9 9
8 8 9 7 7 6 5 1 4 4 2 6 7 6 8 9 8 9 10 10 10 8 9 8 8 6 7 7 7 7 6 5 6 7 7 6 7 6 6 6 7 12 18 20 22 22 21 21 15 20 19 21 21 24 23 21 21 21 19 18 19 18 18 18 16 15 15 15 14 12 12 12 11 10 10 10 10 10 9 9 9 9 9 9 9
8 9 8 6 8 7 7 8 7 7 7 6 7 6 7 8 7 8 9 10 10 7 9 8 7 7 7 6 7 6 5 7 7 7 6 7 6 6 5 6 6 7 9 16 20 22 23 22 22 18 19 20 18 18 22 22 21 20 19 18 15 15 15 14 14 15 14 14 14 13 12 11 11 10 10 9 10 9 8 8 8 8 8 8 8
9 9 8 8 8 8 9 9 8 8 8 7 7 8 8 8 6 10 8 10 10 7 8 8 7 8 7 6 8 5 7 7 6 6 6 5 6 6 5 6 6 6 8 7 12 20 21 23 22 20 20 18 17 15 17 20 21 19 18 18 19 17 15 14 12 12 14 15 14 13 12 11 10 9 9 9 9 9 8 7 7 7 7 7 7
9 8 8 9 8 8 9 9 9 8 8 8 8 8 8 9 8 6 11 7 8 8 6 8 7 9 6 7 6 6 7 6 7 7 6 6 6 6 6 7 6 6 7 6 6 9 19 20 21 22 19 16 14 14 14 18 18 18 18 18 17 16 17 15 13 12 12 13 13 13 12 11 10 8 8 8 8 8 7 6 6 6 6 6 6
10 8 8 8 8 9 9 9 9 9 9 8 9 7 7 9 9 8 9 10 8 9 8 7 7 9 8 9 8 7 7 6 6 5 5 7 6 7 7 7 7 7 6 6 6 6 12 18 18 19 20 15 12 12 13 15 17 16 16 17 18 17 16 15 13 11 11 12 13 12 11 11 9 7 7 7 7 6 6 5 5 5 5 5 5
10 9 7 8 8 8 9 10 9 9 9 9 9 7 8 9 11 9 7 9 9 8 9 8 8 7 8 8 7 6 6 6 6 6 6 7 7 7 6 5 6 6 6 6 6 6 6 11 15 15 16 18 17 13 11 12 14 16 16 16 16 17 15 14 13 12 11 11 11 10 10 10 8 7 7 6 6 6 5 5 5 4 5 4 4
9 9 8 8 8 9 9 9 8 7 8 9 9 9 9 9 11 10 10 9 9 8 8 9 10 9 9 8 8 7 6 7 6 5 5 6 7 6 5 6 5 5 6 5 5 5 6 6 6 6 8 15 14 15 14 10 10 13 14 15 16 15 13 13 12 11 10 9 10 9 9 8 7 6 6 6 6 6 5 4 5 5 5 5 5
8 7 8 8 8 8 8 8 7 8 8 9 7 7 9 11 10 12 13 11 9 8 8 10 10 10 10 8 8 8 8 6 6 6 5 6 6 5 5 5 5 5 5 4 4 4 4 4 5 5 5 8 13 14 15 15 9 6 11 13 15 14 14 13 12 11 10 10 9 8 8 7 6 5 5 4 4 3 2 2 3 3 2 3 4
7 7 8 8 7 7 8 8 7 6 7 8 8 8 8 8 9 7 10 11 7 5 6 7 9 7 7 8 8 8 8 8 8 6 7 5 5 5 4 4 4 4 4 3 4 4 4 4 4 4 4 4 6 10 12 12 10 9 5 10 12 13 12 11 11 11 10 9 8 8 7 6 5 4 4 3 3 2 3 3 2 2 3 3 4
9 8 8 7 7 7 7 7 7 7 7 6 8 8 9 7 7 8 4 6 6 3 2 1 3 4 5 3 5 5 6 6 6 6 5 5 4 4 4 3 4 3 3 3 4 4 4 4 3 4 3 4 4 5 6 6 7 10 9 4 7 9 11 10 8 8 7 7 7 6 6 4 4 4 3 3 2 1 0 1 3 4 4 4 4
10 9 8 8 7 6 6 6 6 5 5 6 6 6 5 5 4 7 7 3 4 0 1 1 4 4 3 5 1 3 0 3 3 4 4 4 4 3 3 3 4 3 3 3 3 3 4 3 3 3 3 3 4 4 4 5 6 9 6 6 4 10 11 11 8 6 7 7 4 4 4 3 4 3 2 1 2 3 4 4 3 4 4 5 5
9 8 7 7 7 6 6 5 5 5 6 7 7 6 5 5 4 3 2 5 3 3 3 2 3 5 3 2 3 3 2 2 0 1 2 3 2 2 1 1 1 1 1 2 2 3 3 3 4 3 3 3 3 4 4 4 5 7 8 3 4 6 8 8 8 6 6 4 4 4 3 3 4 2 2 2 1 2 2 3 3 4 4 5 6
8 9 8 7 7 7 6 5 5 5 4 4 5 5 6 5 4 4 3 5 4 2 1 2 3 0 3 4 3 1 2 2 3 0 1 1 1 1 1 1 2 1 1 1 1 0 1 1 2 2 3 3 3 3 3 3 4 5 5 5 1 3 3 6 6 8 5 5 5 4 3 3 2 2 1 1 2 1 2 4 5 5 5 6 6
7 8 8 7 8 7 6 6 5 5 5 4 3 2 2 2 2 4 5 3 6 5 3 2 2 3 4 3 2 3 4 3 1 2 0 2 2 3 2 3 2 3 2 2 1 1 1 2 2 2 2 2 2 2 2 3 3 4 4 3 3 2 4 4 5 6 7 7 5 4 3 3 2 1 1 1 1 3 3 3 4 4 6 7 7
6 6 6 6 6 7 6 6 6 6 5 5 5 3 2 1 1 1 1 2 2 2 5 4 1 2 3 3 2 2 6 7 4 3 1 2 3 3 3 3 5 4 4 5 6 5 5 5 5 5 4 3 3 3 2 2 4 3 5 2 3 4 5 4 6 7 7 7 5 4 3 2 2 1 1 1 3 3 4 3 4 5 7 8 8
5 5 5 5 5 6 6 6 6 6 5 5 5 4 4 3 2 1 1 0 0 2 3 3 3 2 1 0 0 1 3 1 3 6 4 3 2 1 2 3 3 4 3 3 4 4 4 4 4 4 4 4 3 2 2 2 3 3 3 2 2 2 2 3 3 3 4 5 5 4 2 2 2 3 2 4 5 6 7 6 6 7 7 8 8
3 4 4 4 4 4 4 5 5 5 3 5 4 4 4 3 3 2 1 1 0 1 1 2 1 2 2 0 1 1 1 2 1 3 3 3 1 3 3 1 2 5 4 4 5 5 5 5 4 4 4 4 4 3 4 4 4 2 4 3 0 1 1 2 2 2 3 3 1 1 1 2 3 4 4 6 7 7 7 7 8 8 8 9 9
3 3 4 3 4 3 3 4 4 3 3 3 4 4 4 4 3 3 2 0 2 2 1 2 1 2 1 2 2 1 2 2 0 2 2 1 4 5 6 7 6 5 5 5 5 5 5 4 4 4 5 5 4 4 4 4 3 2 3 4 3 2 2 3 3 4 4 3 3 3 5 4 5 6 6 6 7 8 8 9 8 9 9 9 9
3 2 1 2 3 3 3 3 2 2 3 4 3 2 3 2 3 3 2 1 1 1 1 1 1 0 1 2 5 4 4 4 5 4 2 1 2 0 2 5 4 1 4 4 4 4 4 4 5 5 5 5 4 5 4 5 4 4 6 5 4 4 5 5 4 5 5 5 5 5 6 7 7 7 7 7 8 9 9 9 9 9 10 10 10
3 3 3 2 1 2 2 2 3 3 3 1 1 2 1 2 2 2 1 1 1 0 0 0 0 0 2 2 4 3 2 1 2 3 5 3 3 2 3 1 2 4 2 1 3 3 4 5 5 5 5 5 5 5 5 4 5 7 5 6 6 6 6 6 6 6 6 6 6 7 7 8 9 8 8 9 9 9 9 10 10 10 10 11 11
4 3 4 3 1 2 2 2 2 2 1 1 1 0 1 1 1 1 0 0 0 0 1 2 1 3 4 1 1 2 4 2 2 3 1 4 4 2 1 0 1 2 2 1 3 2 5 6 6 5 5 5 5 5 5 5 5 6 7 5 8 7 7 7 7 8 8 8 8 8 8 8 9 10 10 9 10 10 10 10 10 11 11 12 12
5 4 5 3 2 2 2 2 1 2 1 1 0 0 0 0 0 0 0 0 0 1 1 1 1 2 1 1 2 3 4 1 2 3 4 3 2 3 3 0 0 2 1 1 1 1 4 6 6 6 6 6 6 5 5 6 5 7 8 5 6 8 8 8 8 9 9 9 9 9 9 9 10 11 11 11 11 11 11 11 11 11 12 12 12
6 6 4 4 4 3 2 3 3 2 2 2 1 0 0 0 1 1 1 1 0 0 1 1 2 2 1 2 3 3 5 3 2 4 4 6 6 6 6 3 2 1 2 1 2 6 5 2 7 6 7 6 6 6 6 5 7 6 8 5 4 8 10 11 10 10 10 10 10 11 11 11 11 12 12 12 13 12 12 12 12 12 12 13 13
6 4 5 4 4 4 4 4 4 4 3 2 2 1 0 1 2 1 2 1 2 1 3 1 3 3 3 1 1 4 3 3 2 3 5 4 4 5 5 5 5 5 1 3 3 6 4 5 2 7 7 7 7 6 6 6 6 8 8 5 5 6 10 12 12 11 11 11 12 12 12 12 12 12 13 13 13 13 13 13 13 14 14 14 15
6 4 6 5 5 5 5 5 4 4 4 4 4 3 2 2 3 3 4 2 2 4 3 3 4 2 2 3 4 4 4 2 2 1 2 3 4 5 6 8 6 5 3 3 5 6 4 7 6 4 8 7 7 6 6 6 7 7 5 5 6 5 9 12 14 14 13 13 12 12 13 13 12 12 14 14 14 14 14 15 15 14 15 15 15
6 5 5 6 6 5 5 6 5 4 5 4 4 4 3 3 4 4 4 3 4 3 3 3 4 3 3 3 3 4 3 2 4 2 1 3 4 6 6 5 6 7 6 6 6 5 5 3 6 5 3 8 7 6 6 7 9 8 6 7 6 7 11 14 14 15 15 14 13 13 13 13 13 13 14 15 16 16 16 16 15 15 15 16 16
6 6 6 6 6 6 6 6 6 6 5 5 4 4 4 4 4 6 4 3 4 5 4 4 4 3 4 4 4 4 4 4 4 3 1 2 5 5 6 4 5 5 6 5 3 4 5 6 7 7 5 6 6 7 6 7 8 9 7 7 8 10 12 10 14 15 16 16 14 14 14 14 15 15 14 16 17 17 17 18 17 15 15 17 18
6 6 6 7 7 7 7 7 7 6 6 6 5 5 4 5 5 6 5 4 4 5 5 4 3 4 4 5 5 5 4 3 4 4 4 2 2 3 4 5 5 4 5 6 6 8 4 6 5 4 6 6 5 7 8 7 7 11 8 8 9 9 8 8 12 16 16 17 15 15 15 16 16 16 16 16 17 19 19 19 18 17 16 17 17
6 6 7 8 7 7 7 7 7 7 6 7 6 5 5 6 6 6 5 4 5 6 4 6 4 4 5 5 6 6 4 4 5 5 4 4 2 3 3 4 5 4 5 6 6 8 5 4 4 5 3 5 4 7 8 8 7 7 7 8 8 7 8 8 8 12 15 16 17 17 17 18 17 18 18 17 17 18 19 20 19 16 16 16 14
5 7 7 7 6 7 6 8 7 7 7 7 6 6 7 7 8 6 7 7 7 7 5 7 6 6 5 6 7 7 4 5 4 5 6 5 4 4 5 5 6 6 4 5 7 5 9 1 3 3 2 4 6 4 9 9 9 6 7 8 7 7 8 8 7 8 14 16 17 18 19 19 18 18 18 18 18 18 17 16 16 16 13 13 13
5 6 7 6 6 6 6 7 7 7 8 8 7 7 8 9 9 8 8 8 9 9 8 9 9 6 5 7 8 7 4 5 6 7 5 6 5 6 7 5 6 6 5 5 5 7 7 7 4 4 4 4 7 7 7 7 8 6 7 8 9 7 7 8 8 8 12 16 18 19 20 20 20 20 20 20 19 19 18 18 16 14 14 13 13
8 7 5 6 5 6 7 8 8 9 8 8 8 9 11 11 11 11 10 9 9 9 10 10 9 8 9 8 9 9 7 8 9 8 8 7 7 7 7 6 6 7 6 5 7 7 6 7 5 7 5 5 6 6 4 5 7 6 7 8 6 7 7 7 8 9 11 16 18 20 20 21 22 22 22 21 20 20 20 19 18 16 15 15 14
7 6 6 5 6 7 9 10 10 10 10 9 9 10 10 10 11 11 10 10 10 11 11 10 9 9 9 10 11 9 8 9 8 8 7 8 8 7 8 7 7 7 5 6 8 6 7 9 8 5 5 5 5 5 5 7 6 5 5 7 8 7 7 8 7 9 11 16 18 19 20 21 22 23 23 22 22 21 20 19 18 18 17 16 15
7 6 7 7 7 9 9 10 10 10 9 9 10 11 11 10 9 10 10 10 10 10 10 10 10 9 10 12 12 10 9 10 10 9 8 10 8 8 9 9 8 6 7 7 7 7 7 10 9 9 5 6 5 6 7 6 6 6 6 7 5 5 7 8 9 8 7 7 7 10 15 18 21 24 23 22 22 22 21 20 19 18 17 17 17
7 8 7 8 8 8 10 9 10 10 10 9 10 10 10 10 9 9 10 10 10 9 9 10 9 11 11 11 11 10 10 10 11 11 10 9 8 10 11 11 8 7 8 8 7 8 9 9 9 9 10 7 7 9 8 5 6 8 9 9 8 7 8 9 11 7 6 8 11 15 14 11 12 12 19 23 23 23 22 21 19 19 17 18 18
7 8 8 8 8 6 9 9 10 9 9 9 9 10 10 10 9 9 9 10 10 9 9 9 10 11 11 12 12 11 11 12 12 11 10 10 8 10 10 8 8 8 8 8 8 8 9 10 10 11 9 8 6 8 2 2 4 7 9 9 11 10 9 9 10 9 6 7 9 9 11 12 14 16 19 20 22 23 23 20 21 19 19 19 19
7 7 7 7 8 9 9 9 9 8 8 9 8 9 9 10 9 9 10 10 10 10 9 9 10 11 12 12 12 12 13 15 17 15 13 12 9 10 11 9 8 9 8 8 9 9 9 9 10 9 9 8 10 8 7 8 10 14 5 6 9 10 11 8 7 8 8 8 8 9 8 8 10 10 9 10 11 17 18 20 12 17 20 19 19
7 6 6 7 7 9 10 10 8 7 8 8 11 15 14 10 8 8 8 9 9 10 10 9 10 12 13 13 11 16 17 18 18 19 20 19 18 14 12 9 10 9 9 10 10 10 9 9 11 11 10 12 11 11 11 10 10 7 6 7 10 10 7 9 8 6 7 8 10 10 10 8 9 10 8 10 10 11 10 10 10 10 14 20 20
7 7 6 7 8 8 9 9 9 8 8 8 14 15 17 18 12 8 8 9 9 10 10 11 12 13 12 12 11 13 15 15 16 21 20 21 21 21 21 18 13 11 10 11 12 10 9 11 10 9 11 13 12 10 10 10 8 8 9 8 10 6 8 9 12 3 8 10 10 10 11 8 9 11 10 11 10 9 9 10 13 17 18 18 19
8 5 6 8 8 7 7 8 9 9 9 12 15 15 16 17 15 10 8 8 8 9 10 12 12 12 12 11 10 8 9 12 13 13 16 20 21 21 21 21 21 20 19 15 12 10 11 12 12 12 10 12 12 8 10 9 10 8 8 8 9 9 10 10 10 11 4 10 9 9 11 5 8 10 10 10 9 9 10 11 17 18 19 19 19
5 6 7 7 8 8 7 9 10 9 9 13 14 16 16 17 16 13 8 9 9 10 11 12 11 10 10 10 10 9 9 15 14 11 11 11 16 21 20 21 21 23 23 24 22 17 13 13 12 13 12 12 11 11 11 10 6 9 7 9 9 9 10 11 12 10 3 9 8 8 12 6 9 10 12 9 8 9 8 12 18 18 18 18 18
7 8 7 8 8 8 8 8 9 9 10 11 14 15 15 16 16 13 8 9 10 11 12 11 10 10 12 12 11 10 9 9 9 10 10 10 9 10 11 13 14 18 21 23 24 26 23 16 14 15 13 11 13 11 10 7 9 11 10 12 9 10 11 13 13 11 3 9 10 7 11 5 8 8 11 7 7 7 6 10 17 17 17 18 17
7 8 8 7 7 7 8 7 8 10 10 13 13 15 15 15 16 13 8 9 9 10 11 10 11 12 13 12 11 11 10 9 9 11 10 10 10 10 11 12 14 14 14 14 15 16 16 15 16 16 16 14 15 14 12 9 12 11 11 12 11 11 11 11 9 2 4 7 9 7 14 8 6 8 9 6 6 7 6 10 16 17 17 16 17
6 6 8 6 8 9 8 7 7 10 11 13 13 14 14 14 15 9 8 9 9 10 10 10 10 11 11 12 11 11 10 11 14 18 15 11 9 11 12 13 13 12 12 15 19 17 14 12 13 14 14 15 18 16 13 11 10 9 8 8 5 5 7 11 13 8 9 6 9 9 10 10 5 8 7 5 5 6 5 6 12 16 15 15 16
7 7 8 8 7 7 8 7 7 10 11 13 12 13 13 14 11 7 8 8 8 9 10 10 11 11 11 11 10 10 11 12 16 18 18 15 10 11 12 13 12 10 13 12 16 19 18 20 21 22 22 22 22 22 22 22 16 10 6 8 12 7 9 13 13 11 12 6 7 9 9 11 5 7 5 3 6 6 5 5 4 9 13 14 16
8 8 7 8 8 7 7 9 8 9 11 13 14 12 12 12 10 8 8 8 9 9 9 10 9 9 11 16 14 12 12 13 16 18 19 14 10 12 12 12 12 14 15 9 6 8 15 20 21 22 23 22 23 24 24 22 21 15 10 14 12 6 12 12 14 12 9 6 9 9 6 10 3 4 4 1 0 2 3 3 4 5 10 13 16
8 7 7 8 9 9 7 8 10 10 10 13 14 12 12 12 10 7 8 7 9 9 9 10 8 9 9 11 16 15 14 14 17 17 18 15 11 11 11 10 13 15 14 8 10 10 9 9 10 11 13 15 15 14 15 21 21 18 14 14 10 9 12 12 11 10 10 10 8 11 8 6 6 4 5 1 3 2 0 2 4 4 4 4 6
Wind_Direction
300 299 298 294 292 289 286 276 275 278 283 277 257 214 217 218 188 160 141 134 123 116 106 90 91 86 96 98 97 94 90 86 77 65 53 34 21 34 32 28 30 26 25 325 249 244 240 237 229 221 220 211 198 188 183 167 164 154 152 143 127 123 124 117 112 118 117 116 113 112 110 106 103 99 93 88 86 85 82 78 73 69 65 62 61
300 298 300 293 289 285 278 269 269 274 278 272 221 230 234 199 183 135 123 127 122 112 105 103 93 90 91 97 91 89 88 87 80 71 63 53 28 20 24 25 28 25 26 37 28 282 244 238 230 224 217 202 191 178 180 147 150 144 139 129 125 122 122 119 117 116 116 115 111 109 105 100 96 94 92 92 89 86 84 79 75 70 65 61 58
297 299 295 290 286 282 274 266 260 268 258 261 129 189 196 239 177 151 133 110 98 100 105 99 94 90 93 98 96 91 79 77 76 74 65 53 46 32 23 19 17 22 24 30 33 29 329 230 228 220 212 179 181 159 140 129 127 126 122 123 122 121 121 119 118 116 114 114 114 109 106 104 100 97 96 93 91 87 83 81 75 72 67 61 59
303 297 292 290 285 277 261 242 254 258 245 228 68 55 54 55 17 124 112 105 104 94 91 102 95 92 92 87 87 89 82 73 73 66 64 59 46 45 27 16 7 11 24 28 34 41 36 60 182 221 198 170 144 125 123 118 116 121 124 126 120 120 122 123 121 118 115 111 108 107 103 100 97 96 96 92 87 87 84 80 76 72 67 62 59
302 300 305 287 286 306 333 331 260 264 76 91 85 71 70 65 61 83 81 95 95 90 86 82 82 76 89 78 85 78 76 73 73 69 62 57 56 46 44 28 9 3 19 24 25 38 51 54 69 89 99 112 118 122 121 122 118 116 117 117 119 122 124 118 116 116 116 114 109 105 101 98 95 93 91 89 87 83 79 79 77 75 70 64 58
325 328 319 338 4 7 14 18 14 33 49 53 66 67 77 84 83 75 86 94 92 86 101 89 78 76 69 68 77 71 69 71 66 65 59 56 53 50 43 40 18 6 10 14 24 28 40 53 56 74 97 100 100 105 113 112 109 108 100 96 103 110 111 116 120 123 120 115 111 106 101 97 95 93 90 88 87 83 80 76 75 73 71 66 61
342 346 0 14 17 18 22 23 22 30 47 33 64 69 73 74 66 93 75 89 91 83 84 84 85 74 66 70 74 62 65 64 62 58 59 57 53 48 43 44 29 23 14 15 13 26 27 40 51 65 80 85 99 107 113 114 115 116 118 120 118 116 115 112 111 111 112 115 115 111 107 102 96 93 90 88 84 82 78 75 74 71 67 68 62
353 2 20 24 22 22 22 24 25 35 45 46 49 60 81 78 60 77 102 80 92 85 82 80 76 79 68 67 62 57 66 58 58 58 54 57 54 50 42 43 36 31 28 14 12 18 24 28 37 38 50 79 93 110 112 113 114 118 119 117 116 115 111 104 103 105 108 111 111 108 107 104 99 96 94 92 90 84 81 79 76 74 71 69 67
351 3 33 35 33 33 28 28 34 37 44 48 51 47 66 81 65 52 77 88 62 89 82 74 76 76 73 68 59 57 59 59 57 49 50 55 51 51 49 43 45 36 32 25 14 21 18 27 26 29 31 39 85 83 98 107 111 114 114 116 115 112 111 115 120 114 112 112 109 106 103 102 101 102 99 92 91 91 88 82 77 73 67 62 61
358 352 17 44 49 44 42 38 40 44 46 50 49 51 59 72 79 58 53 79 83 67 78 73 69 67 66 59 54 51 48 51 55 54 50 53 49 46 45 43 43 42 38 33 24 21 23 20 23 19 24 38 50 62 90 97 105 111 117 117 114 115 117 120 119 119 122 120 117 113 108 107 110 108 100 98 90 85 76 64 58 55 49 46 43
9 9 13 22 46 55 57 47 47 52 58 56 57 57 66 70 84 79 62 59 77 75 77 84 75 66 58 56 60 50 50 48 46 39 43 51 56 50 46 39 42 39 44 35 27 29 26 25 23 19 7 26 51 53 44 74 99 111 114 117 118 116 117 119 122 124 120 109 105 106 108 108 109 105 99 89 82 74 70 59 49 44 39 39 36
13 18 29 27 28 37 50 53 64 75 69 67 64 66 79 85 78 92 96 85 77 87 84 83 78 69 62 55 53 57 50 49 46 44 42 52 48 43 44 38 36 34 37 33 28 32 33 28 34 24 6 9 28 34 34 37 49 99 124 123 124 123 126 126 126 124 119 113 112 112 109 112 107 105 99 93 94 89 74 63 55 40 28 19 13
16 19 36 49 42 37 42 43 39 51 74 85 86 86 84 94 98 85 102 106 92 103 115 110 104 77 71 61 56 51 57 51 50 47 49 50 47 48 38 35 32 31 26 28 32 30 26 29 24 28 18 4 9 21 28 29 33 37 73 135 132 129 128 128 124 118 117 116 118 113 117 124 131 115 105 96 89 66 46 39 360 338 341 359 12
4 13 24 34 52 58 53 50 51 50 64 72 85 97 104 102 112 95 59 105 116 164 206 236 49 132 132 93 64 63 57 50 46 45 43 41 45 43 28 24 38 29 13 30 32 28 29 27 23 23 14 13 19 15 12 5 0 26 12 24 133 134 129 133 129 129 131 128 122 138 150 138 116 112 102 104 75 77 331 347 331 337 341 338 332
6 6 13 13 23 44 70 86 75 73 72 61 58 60 65 90 101 120 124 81 107 182 237 273 124 119 120 98 87 71 11 67 46 32 31 39 29 33 26 23 35 20 14 14 16 19 25 26 21 24 11 9 15 25 5 360 0 3 354 356 223 165 155 143 138 138 126 128 143 130 92 96 100 110 90 37 19 11 7 348 348 333 336 329 325
5 9 13 13 11 20 10 26 70 94 108 110 107 103 94 84 87 75 61 100 36 49 19 8 128 134 113 109 152 141 147 237 150 10 45 27 36 19 340 37 74 51 19 22 6 6 357 7 15 8 357 356 17 13 357 346 350 341 341 325 292 192 183 172 162 138 126 113 112 102 116 78 86 81 79 69 51 30 348 325 319 332 318 319 325
5 7 11 13 13 12 14 20 28 20 34 78 104 123 134 139 142 127 108 131 120 144 344 103 156 343 143 104 72 298 249 108 125 25 54 323 252 214 253 227 202 202 193 191 160 136 358 359 350 341 331 344 355 353 343 335 320 311 314 307 104 110 140 164 168 147 146 136 121 118 107 121 135 194 155 61 31 316 315 337 330 331 329 324 321
14 9 9 14 13 10 13 16 15 15 19 28 36 53 63 116 159 142 137 168 146 146 152 232 198 189 211 183 185 179 164 178 138 268 358 241 241 216 223 206 209 209 196 187 176 183 192 210 221 244 251 268 266 270 294 292 293 302 279 312 110 138 134 149 159 153 165 153 138 148 151 162 198 229 80 110 237 311 330 319 319 315 308 303 310
10 15 13 13 16 14 13 14 14 13 13 25 29 18 5 357 344 23 121 137 141 122 162 177 204 265 221 212 190 226 155 139 195 120 273 204 216 220 227 210 218 215 202 195 185 185 192 192 196 201 204 212 211 221 242 293 297 302 320 125 112 129 156 155 163 163 169 156 156 170 186 197 233 273 290 286 266 254 267 296 313 309 310 314 313
15 12 15 13 19 18 14 17 17 9 17 21 11 355 15 3 10 16 25 355 343 142 175 190 161 225 188 143 62 128 170 351 154 165 155 165 232 274 282 245 253 251 232 216 201 199 199 198 198 199 199 205 204 194 224 253 258 300 313 323 117 124 133 140 147 160 154 157 193 182 197 237 291 295 303 283 294 313 317 311 303 306 308 312 314
11 16 8 14 20 19 19 21 24 11 19 15 11 15 22 18 7 15 359 324 331 344 54 234 278 220 117 22 71 128 308 21 80 58 125 118 250 201 232 270 259 253 246 220 218 205 203 207 203 200 203 211 201 202 211 222 245 277 291 301 198 141 151 164 171 176 174 203 188 221 239 265 277 299 291 294 303 304 299 295 299 306 312 311 313
350 5 9 5 13 17 28 29 17 12 27 14 16 18 14 19 8 1 15 14 350 4 261 287 268 272 205 169 132 58 30 28 357 74 41 72 173 203 200 180 206 239 215 226 218 213 208 206 204 210 214 212 214 212 211 224 229 239 264 273 269 254 233 214 212 209 213 216 234 245 253 263 261 260 276 281 284 291 296 291 299 303 306 308 306
326 337 5 358 357 14 18 8 23 27 31 18 10 10 2 17 2 21 29 29 352 26 23 17 13 309 273 185 204 195 171 177 203 193 146 133 70 281 178 209 205 255 243 213 218 222 215 210 209 219 219 221 225 220 219 229 235 238 244 255 261 248 238 239 233 233 230 235 237 246 250 254 263 269 273 277 276 278 283 288 294 299 301 302 300
321 335 335 347 359 353 354 12 15 23 13 334 2 4 5 26 31 39 18 17 23 54 75 309 30 348 268 243 233 245 280 220 225 180 169 201 146 183 180 162 299 237 298 230 254 236 230 224 226 220 222 222 225 220 226 229 240 246 249 268 266 264 257 241 239 243 244 244 247 250 251 256 261 267 266 275 280 282 285 288 291 294 295 296 298
310 319 295 305 326 345 346 351 335 326 314 3 337 14 54 84 65 40 43 353 323 139 207 224 209 190 228 236 246 228 242 250 161 171 97 110 121 116 265 105 181 284 279 140 231 244 219 233 220 227 224 226 230 225 227 228 237 246 242 259 263 272 282 280 267 256 252 250 251 254 260 263 267 268 277 275 275 278 278 282 287 289 292 294 295
273 265 252 251 264 243 259 270 248 261 278 276 270 287 150 114 121 120 262 257 120 155 214 248 237 257 241 229 237 228 253 234 176 150 155 132 142 150 148 295 90 263 317 276 296 210 266 225 223 220 224 225 227 226 225 227 232 240 236 235 262 265 267 263 262 261 260 258 259 264 265 265 265 273 275 277 273 277 278 278 278 282 285 287 287
247 252 250 236 244 262 253 250 273 282 294 311 310 355 267 200 194 202 261 218 161 213 226 195 240 254 259 219 250 269 259 264 169 208 175 186 168 162 147 150 283 338 278 277 294 235 244 288 212 221 223 224 225 225 224 222 228 222 228 227 235 250 256 260 265 268 265 263 264 265 264 266 268 272 273 270 269 267 269 272 274 276 278 279 280
244 245 253 230 241 243 252 251 250 257 260 250 271 273 281 214 258 235 259 190 204 218 242 204 246 236 235 248 239 254 257 265 221 219 207 208 179 162 163 161 177 267 308 287 267 264 209 235 277 221 215 216 225 221 223 227 233 230 228 224 229 240 248 250 254 256 258 260 263 266 267 268 271 272 273 273 276 277 272 269 268 270 277 279 277
239 226 238 236 237 234 244 252 251 247 249 247 244 253 221 224 236 239 244 241 209 230 223 217 237 221 229 218 215 248 265 275 285 235 220 200 195 194 186 185 176 175 220 245 257 241 274 202 226 253 204 217 220 218 223 225 231 221 223 222 226 232 239 242 245 249 251 255 260 266 268 270 272 273 272 273 272 269 268 267 267 271 275 279 282
224 234 225 234 233 234 235 245 245 246 244 246 238 235 233 243 228 232 234 215 216 245 235 216 242 211 227 234 229 250 248 262 255 252 188 203 196 203 208 208 168 195 189 200 261 210 244 263 214 242 212 215 210 223 211 228 228 218 223 221 223 227 231 234 240 245 249 252 258 267 273 275 276 277 275 271 271 270 270 270 272 274 278 279 279
238 237 233 232 232 235 228 240 239 243 245 247 240 241 224 240 245 240 244 218 221 238 242 217 239 218 236 238 236 241 246 242 255 262 231 174 209 204 222 199 198 195 180 176 237 281 194 226 234 227 212 214 207 216 219 226 226 216 221 223 226 228 226 234 238 242 246 248 254 260 267 271 273 275 278 276 271 270 269 269 269 272 276 277 278
239 239 237 235 232 234 231 231 237 237 239 242 234 238 232 231 238 242 242 216 229 235 245 229 232 221 228 237 238 234 240 236 249 249 255 244 173 193 202 202 216 200 172 181 207 252 214 212 231 234 216 210 199 209 226 231 225 217 222 224 227 225 232 237 238 240 241 245 248 253 258 263 266 269 272 275 273 269 268 268 269 271 277 276 277
232 233 236 239 239 235 236 231 232 234 231 238 230 226 227 236 237 235 243 222 229 242 234 249 233 226 226 230 239 240 227 230 238 238 240 244 229 226 196 192 214 196 179 192 214 252 284 229 225 237 221 190 218 205 220 226 228 223 219 230 230 226 229 234 237 238 239 239 242 246 250 253 256 259 264 267 268 268 267 265 266 269 274 278 282
227 235 235 239 237 238 237 241 237 237 235 234 231 215 226 232 237 228 232 225 229 239 228 240 235 223 222 226 241 243 220 228 236 236 229 230 227 232 233 211 226 217 207 185 222 223 256 272 259 238 238 186 226 194 208 220 234 217 219 231 231 224 229 233 234 238 236 235 237 241 244 247 249 251 255 258 260 262 262 264 268 267 266 265 266
255 236 245 241 240 236 239 244 242 241 236 235 230 219 227 227 230 230 223 221 222 228 228 231 232 223 219 224 236 233 213 224 234 232 224 229 222 221 231 218 224 229 213 208 199 232 240 257 228 245 226 194 206 226 212 225 229 207 213 228 229 226 224 227 229 237 234 231 232 237 240 243 245 246 247 249 250 252 255 255 252 251 256 262 263
265 261 243 251 248 241 242 246 240 238 235 230 228 222 225 223 224 227 224 220 220 223 225 227 226 217 219 224 232 226 212 218 226 222 217 215 216 218 227 227 220 229 218 207 217 222 229 240 260 215 230 207 240 248 234 226 233 226 215 233 236 233 231 225 227 236 234 231 230 233 236 239 241 241 242 243 244 247 249 249 247 247 251 257 261
258 263 261 234 240 237 238 240 241 237 233 229 228 231 230 228 227 227 227 223 223 223 223 224 222 216 219 221 231 221 212 222 233 230 222 218 219 215 222 226 219 225 223 212 223 218 229 236 252 240 215 227 235 245 225 227 237 243 246 236 235 234 236 236 232 236 241 237 235 235 236 236 237 237 238 239 241 244 245 245 244 246 249 252 257
262 251 250 250 231 241 239 244 244 245 240 231 231 234 235 233 231 232 232 231 230 228 227 226 225 220 223 225 229 224 216 217 230 231 223 224 222 219 224 227 220 215 224 230 222 222 225 240 242 260 229 222 243 239 237 220 227 244 248 246 245 236 235 245 236 233 229 229 231 236 238 238 236 237 236 237 239 240 241 242 242 241 240 244 248
254 258 252 250 247 240 248 246 246 245 245 240 238 239 238 235 232 230 233 237 237 235 233 230 225 227 230 233 235 226 225 224 229 229 227 224 220 224 225 227 218 209 221 230 223 223 228 238 246 242 255 240 211 247 240 194 214 223 244 256 250 229 227 226 246 231 220 234 236 233 231 223 225 228 235 236 237 237 238 239 238 237 237 239 242
251 251 254 253 258 244 248 246 246 243 244 244 241 241 241 238 234 232 231 237 238 237 240 234 229 233 233 234 236 229 224 226 227 231 225 227 220 230 232 225 216 210 221 229 230 227 232 236 238 247 238 248 245 238 261 129 218 255 231 231 247 250 244 228 228 238 224 220 238 242 238 237 238 237 237 236 234 235 236 236 235 232 233 237 240
252 252 255 255 260 261 255 250 253 247 243 245 242 240 242 243 232 236 232 234 237 238 236 234 232 235 238 236 235 232 227 229 227 228 226 219 217 228 234 221 217 215 220 228 233 235 239 238 249 246 251 248 243 248 235 215 219 234 219 196 239 242 252 255 239 222 226 228 240 238 235 220 235 233 229 232 231 233 236 233 226 226 232 236 238
257 257 260 257 252 256 262 262 256 250 247 246 242 240 238 240 236 231 233 233 234 236 237 235 235 235 237 237 234 230 230 230 231 232 232 229 224 223 231 212 213 215 219 228 232 235 236 238 240 243 245 245 246 236 243 235 233 232 220 205 229 234 244 254 261 221 214 223 239 242 234 216 225 235 222 230 229 223 227 223 221 212 223 230 235
261 260 254 260 255 252 255 260 264 257 252 251 249 247 248 245 243 239 231 236 232 234 234 232 237 240 242 239 239 234 232 233 235 235 234 233 233 231 232 229 216 209 220 226 235 233 230 236 242 238 238 249 247 240 242 246 236 226 218 216 233 227 229 241 257 241 200 204 229 242 245 208 209 230 223 227 223 219 220 221 216 220 222 228 234
266 258 255 253 257 256 256 258 259 259 259 256 256 257 255 253 246 241 237 236 234 233 233 232 236 242 247 247 241 233 229 228 233 236 236 237 237 236 235 234 233 227 223 223 231 235 230 237 238 236 238 242 250 236 246 241 245 240 233 230 229 231 241 243 247 251 203 189 219 235 253 193 201 226 234 227 219 219 219 211 215 220 225 230 235
271 265 257 258 260 257 252 259 261 259 259 260 261 260 260 258 255 248 242 237 236 237 237 236 237 242 247 249 250 238 233 233 236 237 237 239 238 239 239 239 238 236 235 233 231 234 240 241 238 244 232 244 247 242 235 241 232 246 238 242 236 238 242 248 250 253 212 193 203 235 257 216 183 216 232 226 211 221 216 213 217 223 228 233 235
268 271 266 260 263 261 255 254 260 263 260 263 260 260 260 261 260 254 244 241 237 240 242 240 238 240 241 245 247 249 241 239 239 238 238 237 236 235 236 237 239 241 240 238 238 238 238 242 244 248 243 235 245 245 240 225 232 239 239 248 237 244 244 246 252 252 212 168 197 224 258 220 188 215 233 223 208 220 204 212 219 223 227 229 235
265 268 273 272 266 265 263 257 261 266 265 262 261 260 260 260 262 258 249 243 242 243 242 238 237 239 243 245 246 248 247 242 235 233 231 230 231 232 233 234 235 237 237 236 235 236 237 236 240 245 250 247 252 250 246 231 233 239 236 246 245 245 253 261 268 208 223 193 203 202 255 250 176 212 230 210 201 215 198 211 215 220 225 232 241
261 266 274 261 265 267 265 263 263 271 273 271 266 265 263 262 262 258 248 244 244 244 245 239 236 238 240 242 244 243 242 244 244 239 234 229 229 232 236 240 242 242 240 236 237 236 236 236 237 241 244 243 246 250 246 243 243 242 250 256 259 250 261 263 261 245 235 192 193 206 248 251 163 205 231 190 193 212 191 198 214 221 229 239 249
270 270 269 274 267 265 271 266 262 271 278 279 275 271 268 264 262 252 248 245 244 244 245 241 238 238 239 237 236 239 240 242 243 245 245 234 234 236 241 246 248 249 250 244 243 245 245 244 243 243 244 245 248 251 252 248 245 235 232 249 245 230 247 259 263 256 255 166 201 205 234 257 167 199 227 188 200 212 197 202 193 226 237 248 252
272 265 272 281 277 266 264 270 262 269 277 281 280 280 275 269 258 251 248 247 248 244 248 245 242 243 241 238 234 236 238 243 243 245 247 241 237 238 242 248 253 253 253 254 260 245 237 241 244 246 248 250 251 254 254 253 249 240 227 242 242 205 243 244 258 257 263 178 195 181 210 242 139 186 183 71 321 246 212 209 195 228 239 248 252
262 272 273 271 279 277 261 262 269 265 272 279 282 281 275 270 262 251 249 249 254 250 249 253 247 243 246 244 241 239 240 246 244 243 242 237 235 235 238 243 249 254 255 250 248 250 246 246 245 245 252 249 250 249 248 247 245 239 231 239 242 223 240 247 248 264 273 250 181 166 209 233 150 203 139 77 276 248 261 234 214 190 207 236 259